Weather History for KAZO - November, 2013

Change the Weather History Date:

Sunday, November 17, 2013

  Actual Average Record
Temperature  
Mean Temperature 54 °F 40 °F  
Max Temperature 63 °F 47 °F 71 °F (1953)
Min Temperature 45 °F 33 °F 9 °F (1959)
Degree Days  
Heating Degree Days 11 25  
Month to date heating degree days 378 371  
Since 1 July heating degree days 922 963  
Cooling Degree Days 0 0  
Month to date cooling degree days 0 0  
Year to date cooling degree days 725 675  
Growing Degree Days 4 (Base 50)    
Moisture  
Dew Point 53 °F    
Average Humidity 83    
Maximum Humidity 90    
Minimum Humidity 76    
Precipitation  
Precipitation 1.08 in 0.09 in 1.08 in (2013)
Month to date precipitation 2.31 1.83  
Year to date precipitation 37.79 32.57  
Sea Level Pressure  
Sea Level Pressure 29.49 in    
Wind  
Wind Speed 19 mph (SSW)    
Max Wind Speed 39 mph    
Max Gust Speed 59 mph    
Visibility 7 miles    
Events Rain , Thunderstorm    
T = Trace of Precipitation, MM = Missing Value Source: NWS Daily Summary

Daily Weather History Graph

Daily Weather History Graph

Search for Another Location

Airport or City:

Trip Planner

Search our weather history database for the weather conditions in past years. The results will help you decide how hot, cold, wet, or windy it might be!

Date:

Astronomy

Nov. 17, 2013 Rise Set
Actual Time 7:35 AM EST 5:18 PM EST
Civil Twilight 7:05 AM EST 5:48 PM EST
Nautical Twilight 6:31 AM EST 6:22 PM EST
Astronomical Twilight 5:57 AM EST 6:56 PM EST
Moon 5:35 PM EST (11/17) 7:28 AM EST (11/17)
Length of Visible Light 10h 43m
Length of Day
9h 43m
Full, 100% of the Moon is Illuminated
Nov 17
Full
Nov 25
Last Quarter
Dec 2
New
Dec 9
First Quarter
Dec 17
Full

Hourly Weather History & Observations

Time (EST) Temp. Windchill Dew Point Humidity Pressure Visibility Wind Dir Wind Speed Gust Speed Precip Events Conditions
12:20 AM 57.2 °F - 53.6 °F 88% 29.70 in 10.0 mi South 16.1 mph 29.9 mph 0.01 in   Overcast
12:53 AM 59.0 °F - 55.0 °F 87% 29.69 in 10.0 mi South 23.0 mph 31.1 mph 0.01 in   Overcast
1:01 AM 59.0 °F - 55.4 °F 88% 29.69 in 10.0 mi South 18.4 mph 32.2 mph 0.01 in   Overcast
1:53 AM 59.0 °F - 55.0 °F 87% 29.67 in 10.0 mi South 13.8 mph 21.9 mph 0.01 in   Overcast
2:53 AM 59.0 °F - 55.9 °F 90% 29.66 in 10.0 mi South 12.7 mph 21.9 mph 0.00 in   Overcast
3:53 AM 59.0 °F - 55.9 °F 90% 29.65 in 10.0 mi South 11.5 mph - 0.00 in Rain Light Rain
4:53 AM 59.0 °F - 55.9 °F 90% 29.64 in 10.0 mi South 10.4 mph - 0.05 in   Overcast
5:36 AM 59.0 °F - 57.2 °F 94% 29.63 in 10.0 mi South 10.4 mph - 0.00 in   Overcast
5:53 AM 59.0 °F - 57.0 °F 93% 29.63 in 6.0 mi South 9.2 mph - 0.04 in Rain Heavy Rain
6:02 AM 59.0 °F - 57.2 °F 94% 29.63 in 8.0 mi South 12.7 mph - 0.01 in Rain Light Rain
6:53 AM 59.0 °F - 55.9 °F 90% 29.62 in 10.0 mi South 13.8 mph - 0.01 in   Overcast
7:53 AM 59.0 °F - 55.9 °F 90% 29.59 in 10.0 mi South 12.7 mph 21.9 mph 0.02 in   Overcast
9:53 AM 60.1 °F - 57.0 °F 90% 29.55 in 10.0 mi South 18.4 mph 29.9 mph 0.02 in   Overcast
10:35 AM 60.8 °F - 57.2 °F 88% 29.54 in 2.5 mi South 19.6 mph 26.5 mph 0.00 in Rain Light Rain
10:53 AM 61.0 °F - 57.0 °F 87% 29.53 in 2.5 mi South 17.3 mph 27.6 mph 0.00 in   Overcast
11:53 AM 62.1 °F - 57.0 °F 84% 29.48 in 2.5 mi South 20.7 mph 31.1 mph N/A   Haze
12:00 PM 62.6 °F - 57.2 °F 82% 29.47 in 8.0 mi South 21.9 mph 32.2 mph N/A   Overcast
12:53 PM 62.1 °F - 57.9 °F 86% 29.41 in 3.0 mi South 17.3 mph 32.2 mph 0.00 in Rain Light Rain
1:53 PM 62.1 °F - 57.9 °F 86% 29.35 in 5.0 mi South 20.7 mph 26.5 mph 0.00 in   Overcast
2:53 PM 62.1 °F - 57.9 °F 86% 29.29 in 7.0 mi South 21.9 mph 31.1 mph 0.01 in   Overcast
3:35 PM 62.6 °F - 59.0 °F 88% 29.28 in 1.0 mi South 24.2 mph 31.1 mph 0.11 in Rain , Thunderstorm Thunderstorms and Rain
3:42 PM 62.6 °F - 59.0 °F 88% 29.33 in 1.0 mi WSW 28.8 mph 47.2 mph 0.15 in Rain , Thunderstorm Thunderstorms and Rain
3:53 PM 55.9 °F - 53.1 °F 90% 29.32 in 1.0 mi WSW 32.2 mph 55.2 mph 0.52 in Rain , Thunderstorm Heavy Thunderstorms and Rain
4:00 PM 55.4 °F - 51.8 °F 88% 29.28 in 1.5 mi SW 25.3 mph 47.2 mph 0.11 in Rain , Thunderstorm Heavy Thunderstorms and Rain
4:53 PM 55.9 °F - 53.1 °F 90% 29.28 in 10.0 mi SW 9.2 mph - 0.26 in Rain Light Rain
5:53 PM 55.9 °F - 52.0 °F 87% 29.24 in 10.0 mi SSW 15.0 mph - 0.00 in   Clear
6:37 PM 53.6 °F - 46.4 °F 77% 29.30 in 10.0 mi West 35.7 mph 50.6 mph 0.02 in Thunderstorm Thunderstorm
6:53 PM 51.1 °F - 45.0 °F 80% 29.33 in 10.0 mi WSW 33.4 mph 49.5 mph 0.02 in Rain Light Rain
7:53 PM 46.9 °F - 42.1 °F 83% 29.40 in 7.0 mi West 33.4 mph 44.9 mph 0.04 in Rain Light Rain
8:53 PM 46.0 °F 37.2 °F 41.0 °F 83% 29.45 in 8.0 mi West 26.5 mph 38.0 mph 0.04 in Rain Rain
9:53 PM 46.0 °F 37.0 °F 39.9 °F 79% 29.50 in 10.0 mi West 27.6 mph 40.3 mph 0.03 in Rain Light Rain
10:53 PM 46.0 °F 38.3 °F 39.0 °F 76% 29.55 in 10.0 mi West 20.7 mph 39.1 mph 0.00 in   Overcast
11:53 PM 46.0 °F 38.8 °F 37.0 °F 71% 29.60 in 10.0 mi West 18.4 mph 29.9 mph N/A   Overcast